Hourly Data Report for January 09, 2018

All times are specified in Local Standard Time (LST). Add 1 hour to adjust for Daylight Saving Time where and when it is observed.

TORONTO INTL A
ONTARIO

43°40'36.000" N
79°37'50.000" W
173.40 m
6158731
71624
YYZ

Download Data

Hourly Data (January 2018)
Hourly Data Report for January 9, 2018
Temp Definition
°C
Dew Point Temp Definition
°C
Rel Hum Definition
%
Wind Dir Definition
10's deg

Wind Spd Definition
km/h
Visibility Definition
km
Stn Press Definition
kPa
Hmdx Definition


Wind Chill Definition


Weather Definition


TIME
00:00 0.6 -4.9 67 28 26 24.1 99.30     LegendNANA
01:00 0.2 -5.3 66 26 17 24.1 99.34     Cloudy
02:00 0.1 -4.8 70 25 18 24.1 99.42     Snow
03:00 0.5 -4.4 70 25 22 24.1 99.50     LegendNANA
04:00 0.4 -3.9 73 26 21 24.1 99.56     Cloudy
05:00 -0.4 -4.3 75 32 22 24.1 99.68   -6 LegendNANA
06:00 -0.6 -6.0 67 31 29 24.1 99.78   -7 LegendNANA
07:00 -1.3 -6.8 66 30 14 24.1 99.85   -6 Mostly Cloudy
08:00 -1.2 -6.5 68 27 22 24.1 99.96   -7 LegendNANA
09:00 -1.1 -6.6 66 28 16 24.1 100.08   -6 LegendNANA
10:00 -0.8 -6.6 65 30 19 24.1 100.17   -6 Cloudy
11:00 -1.1 -6.3 67 26 20 24.1 100.24   -7 LegendNANA
12:00 -1.2 -6.3 68 26 21 24.1 100.26   -7 LegendNANA
13:00 -0.9 -5.9 69 28 22 24.1 100.26   -7 Cloudy
14:00 -0.8 -6.0 68 28 21 24.1 100.31   -6 LegendNANA
15:00 -0.8 -6.0 68 27 19 24.1 100.37   -6 LegendNANA
16:00 -1.0 -6.0 69 27 17 24.1 100.47   -6 Cloudy
17:00 -0.9 -6.2 67 28 13 24.1 100.53   -5 LegendNANA
18:00 -1.1 -6.4 67 29 12 24.1 100.57   -5 LegendNANA
19:00 -1.2 -6.5 67 26 9 24.1 100.64   -4 Cloudy
20:00 -1.3 -7.1 65 24 8 24.1 100.67   -4 LegendNANA
21:00 -1.8 -6.7 69 27 8 24.1 100.67   -5 LegendNANA
22:00 -1.6 -6.7 68 36 1 24.1 100.69   -2 Cloudy
23:00 -1.3 -7.3 64 19 6 24.1 100.67   -4 LegendNANA

Notes on Data Quality.

Legend

  • E = Estimated
  • M = Missing
  • NA = Not Available
Date modified: